M I D A S
Marine Information and Data Acquisition System
Tripno 1621 of the Zeeleeuw from 2008-12-17 07:56:55 to 2008-12-17 14:39:23
Back to CruiseResearch ActivitiesStationsMapUnderway DataData graphs

EquipmentUnitsComment
TimeDGPSUTC
LatitudeDGPSDM.mWGS84
LongitudeDGPSDM.mWGS84
TemperatureSBE03/SBE38deg celciusITS90
ConductivitySBE21S/mITS90
SalinitySBE21 Practical Salinity Units
ChlorophylAChelsea fluorimeterg/lCalibrated in Aceton
Missing or incorrect values are displayed as -999
Sea surface data collected by the RV Zeeleeuw from 2008-12-17 08:00:30 to 2008-12-17 14:43:06
Time Latitude Longitude Temperature Conductivity Salinity ChlorophylA
2008-12-17 08:01:38 51°13.68 2°55.876 -999 0.06351 0.364748 -0.93092
2008-12-17 08:02:36 51°13.692 2°55.802 -999 0.06351 0.364741 -0.93092
2008-12-17 08:03:35 51°13.697 2°55.749 -999 0.06351 0.364734 -0.896096
2008-12-17 08:04:35 51°13.698 2°55.723 -999 0.06351 0.364727 -0.93092
2008-12-17 08:05:35 51°13.701 2°55.711 -999 0.06351 0.364727 -0.93092
2008-12-17 08:06:35 51°13.695 2°55.698 -999 0.06351 0.364727 -0.93092
2008-12-17 08:07:35 51°13.692 2°55.691 -999 0.06351 0.36472 -0.93092
2008-12-17 08:08:35 51°13.694 2°55.689 -999 0.06351 0.364713 -0.93092
2008-12-17 08:09:35 51°13.697 2°55.687 -999 0.06351 0.364692 -0.93092
2008-12-17 08:10:35 51°13.699 2°55.684 -999 0.06351 0.364686 -0.93092
2008-12-17 08:11:35 51°13.701 2°55.679 -999 0.06351 0.364665 -0.93092
2008-12-17 08:12:35 51°13.715 2°55.674 -999 0.06351 0.364644 -0.896096
2008-12-17 08:13:35 51°13.812 2°55.646 -999 0.06351 0.364637 -0.93092
2008-12-17 08:14:35 51°13.937 2°55.582 -999 0.06351 0.364624 -0.93092
2008-12-17 08:15:35 51°14.034 2°55.509 -999 0.06351 0.364603 -0.93092
2008-12-17 08:16:35 51°14.147 2°55.407 -999 0.06351 0.364589 -0.93092
2008-12-17 08:17:35 51°14.278 2°55.247 -999 0.06351 0.364568 -0.93092
2008-12-17 08:18:35 51°14.407 2°55.021 -999 0.06351 0.364548 -0.896096
2008-12-17 08:19:35 51°14.544 2°54.778 -999 0.06351 0.364534 -0.896096
2008-12-17 08:20:35 51°14.701 2°54.567 -999 0.06351 0.364527 -0.93092
2008-12-17 08:21:35 51°14.862 2°54.365 -999 0.06351 0.36452 -0.93092
2008-12-17 08:22:35 51°15.021 2°54.167 -999 0.06351 0.3645 -0.93092
2008-12-17 08:23:35 51°15.178 2°53.962 -999 0.06351 0.364486 -0.93092
2008-12-17 08:24:35 51°15.337 2°53.759 -999 0.06351 0.364486 -0.896096
2008-12-17 08:25:35 51°15.504 2°53.569 -999 0.06351 0.364472 -0.93092
2008-12-17 08:26:35 51°15.671 2°53.374 -999 0.06351 0.364458 -0.93092
2008-12-17 08:27:35 51°15.834 2°53.171 -999 0.063613 0.365061 -0.93092
2008-12-17 08:28:35 51°15.995 2°52.965 -999 0.06351 0.364445 -0.896096
2008-12-17 08:29:35 51°16.156 2°52.76 -999 0.063613 0.365048 -0.93092
2008-12-17 08:30:35 51°16.319 2°52.554 -999 0.063613 0.365041 -0.93092
2008-12-17 08:31:35 51°16.483 2°52.349 -999 0.063613 0.365027 -0.93092
2008-12-17 08:32:35 51°16.649 2°52.149 -999 0.063613 0.36502 -0.93092
2008-12-17 08:33:35 51°16.827 2°51.988 -999 0.063613 0.36502 -0.93092
2008-12-17 08:34:35 51°17.012 2°51.854 -999 0.063613 0.365006 -0.93092
2008-12-17 08:35:35 51°17.198 2°51.723 -999 0.063613 0.364992 -0.896096
2008-12-17 08:36:35 51°17.389 2°51.626 -999 0.063613 0.364986 -0.896096
2008-12-17 08:37:35 51°17.585 2°51.597 -999 0.063613 0.364992 -0.93092
2008-12-17 08:38:35 51°17.782 2°51.581 -999 0.063613 0.364979 -0.93092
2008-12-17 08:39:35 51°17.98 2°51.569 -999 0.063613 0.364965 -0.93092
2008-12-17 08:40:35 51°18.178 2°51.559 -999 0.063613 0.364951 -0.93092
2008-12-17 08:41:35 51°18.374 2°51.546 -999 0.063613 0.364944 -0.93092
2008-12-17 08:42:35 51°18.571 2°51.525 -999 0.063613 0.364944 -0.93092
2008-12-17 08:43:35 51°18.768 2°51.499 -999 0.063613 0.36493 -0.93092
2008-12-17 08:44:35 51°18.966 2°51.489 -999 0.063613 0.364924 -0.93092
2008-12-17 08:45:35 51°19.164 2°51.477 -999 0.063613 0.364917 -0.93092
2008-12-17 08:46:35 51°19.363 2°51.465 -999 0.063613 0.364917 -0.93092
2008-12-17 08:47:35 51°19.564 2°51.453 -999 0.063613 0.364903 -0.93092
2008-12-17 08:48:35 51°19.763 2°51.441 -999 0.063613 0.364903 -0.93092
2008-12-17 08:49:35 51°19.962 2°51.415 -999 0.063613 0.364889 -0.896096
2008-12-17 08:50:35 51°20.16 2°51.389 -999 0.063613 0.364882 -0.93092
2008-12-17 08:51:35 51°20.358 2°51.377 -999 0.063613 0.364868 -0.93092
2008-12-17 08:52:35 51°20.556 2°51.365 -999 0.063613 0.364862 -0.93092
2008-12-17 08:53:35 51°20.753 2°51.345 -999 0.063613 0.364855 -0.896096
2008-12-17 08:54:35 51°20.949 2°51.327 -999 0.063613 0.364855 -0.93092
2008-12-17 08:55:35 51°21.145 2°51.317 -999 0.063613 0.364841 -0.93092
2008-12-17 08:56:35 51°21.341 2°51.313 -999 0.063613 0.364834 -0.93092
2008-12-17 08:57:35 51°21.536 2°51.3 -999 0.063613 0.364827 -0.93092
2008-12-17 08:58:35 51°21.732 2°51.302 -999 0.063613 0.36482 -0.93092
2008-12-17 08:59:35 51°21.931 2°51.3 -999 0.063613 0.364813 -0.93092
2008-12-17 09:00:35 51°22.129 2°51.288 -999 0.063613 0.3648 -0.896096
2008-12-17 09:01:35 51°22.328 2°51.273 -999 0.063613 0.364793 -0.93092
2008-12-17 09:02:35 51°22.526 2°51.257 -999 0.063613 0.364786 -0.93092
2008-12-17 09:03:35 51°22.725 2°51.243 -999 0.063613 0.364779 -0.93092
2008-12-17 09:04:35 51°22.924 2°51.228 -999 0.063613 0.364779 -0.93092
2008-12-17 09:05:35 51°23.124 2°51.213 -999 0.063613 0.364772 -0.93092
2008-12-17 09:06:35 51°23.32 2°51.198 -999 0.063613 0.364758 -0.93092
2008-12-17 09:07:35 51°23.515 2°51.182 -999 0.063613 0.364751 -0.93092
2008-12-17 09:08:35 51°23.712 2°51.16 -999 0.063613 0.364745 -0.896096
2008-12-17 09:09:35 51°23.908 2°51.138 -999 0.063613 0.364738 -0.93092
2008-12-17 09:10:35 51°24.104 2°51.127 -999 0.063613 0.364724 -0.93092
2008-12-17 09:11:35 51°24.299 2°51.114 -999 0.063613 0.364724 -0.93092
2008-12-17 09:12:35 51°24.49 2°51.1 -999 0.063613 0.364717 -0.93092
2008-12-17 09:13:35 51°24.683 2°51.085 -999 0.063613 0.36471 -0.93092
2008-12-17 09:14:35 51°24.877 2°51.061 -999 0.063613 0.364703 -0.93092
2008-12-17 09:15:35 51°25.071 2°51.029 -999 0.063613 0.364696 -0.93092
2008-12-17 09:16:35 51°25.264 2°50.994 -999 0.063613 0.36469 -0.93092
2008-12-17 09:17:35 51°25.457 2°50.965 -999 0.063613 0.364676 -0.93092
2008-12-17 09:18:35 51°25.649 2°50.933 -999 0.063613 0.364669 -0.93092
2008-12-17 09:19:35 51°25.843 2°50.894 -999 0.063613 0.364669 -0.93092
2008-12-17 09:20:35 51°26.037 2°50.867 -999 0.063613 0.364662 -0.93092
2008-12-17 09:21:35 51°26.233 2°50.843 -999 0.063613 0.364655 -0.93092
2008-12-17 09:22:35 51°26.43 2°50.818 -999 0.063613 0.364662 -0.93092
2008-12-17 09:23:35 51°26.627 2°50.797 -999 0.063613 0.364655 -0.93092
2008-12-17 09:24:35 51°26.825 2°50.777 -999 0.063613 0.364648 -0.93092
2008-12-17 09:25:35 51°27.018 2°50.753 -999 0.063613 0.364641 -0.93092
2008-12-17 09:26:35 51°27.211 2°50.735 -999 0.063613 0.364635 -0.93092
2008-12-17 09:27:35 51°27.403 2°50.714 -999 0.063613 0.364628 -0.93092
2008-12-17 09:28:35 51°27.596 2°50.693 -999 0.063613 0.364621 -0.93092
2008-12-17 09:29:35 51°27.789 2°50.666 -999 0.063716 0.365223 -0.93092
2008-12-17 09:30:35 51°27.982 2°50.636 -999 0.063716 0.365223 -0.93092
2008-12-17 09:31:35 51°28.175 2°50.609 -999 0.063716 0.365223 -0.93092
2008-12-17 09:32:35 51°28.365 2°50.588 -999 0.063716 0.365216 -0.93092
2008-12-17 09:33:35 51°28.552 2°50.559 -999 0.063716 0.365209 -0.896096
2008-12-17 09:34:35 51°28.741 2°50.529 -999 0.063716 0.365202 -0.93092
2008-12-17 09:35:35 51°28.931 2°50.505 -999 0.063716 0.365202 -0.93092
2008-12-17 09:36:35 51°29.115 2°50.542 -999 0.063716 0.365189 -0.93092
2008-12-17 09:37:35 51°29.25 2°50.737 -999 0.063716 0.365182 -0.896096
2008-12-17 09:38:35 51°29.368 2°50.964 -999 0.063716 0.365175 -0.93092
2008-12-17 09:39:35 51°29.491 2°51.185 -999 0.063716 0.365168 -0.93092
2008-12-17 09:40:35 51°29.619 2°51.401 -999 0.063716 0.365147 -0.896096
2008-12-17 09:41:35 51°29.714 2°51.654 -999 0.063716 0.365141 -0.93092
2008-12-17 09:42:35 51°29.794 2°51.923 -999 0.063716 0.365141 -0.93092
2008-12-17 09:43:35 51°29.883 2°52.188 -999 0.063716 0.365134 -0.93092
2008-12-17 09:44:35 51°29.97 2°52.451 -999 0.063716 0.365113 -0.93092
2008-12-17 09:45:35 51°30.06 2°52.711 -999 0.063716 0.365106 -0.93092
2008-12-17 09:46:35 51°30.152 2°52.969 -999 0.063716 0.365085 -0.93092
2008-12-17 09:47:35 51°30.233 2°53.235 -999 0.063716 0.365079 -0.896096
2008-12-17 09:48:35 51°30.312 2°53.504 -999 0.063716 0.365065 -0.93092
2008-12-17 09:49:35 51°30.39 2°53.775 -999 0.063716 0.365058 -0.896096
2008-12-17 09:50:35 51°30.469 2°54.042 -999 0.063716 0.36503 -0.896096
2008-12-17 09:51:35 51°30.548 2°54.308 -999 0.063716 0.365037 -0.896096
2008-12-17 09:52:35 51°30.623 2°54.578 -999 0.063716 0.365017 -0.896096
2008-12-17 09:53:35 51°30.681 2°54.858 -999 0.063716 0.365003 -0.896096
2008-12-17 09:54:35 51°30.741 2°55.14 -999 0.063716 0.364982 -0.93092
2008-12-17 09:55:35 51°30.801 2°55.42 -999 0.063716 0.364975 -0.93092
2008-12-17 09:56:35 51°30.859 2°55.701 -999 0.063716 0.364962 -0.896096
2008-12-17 09:57:35 51°30.919 2°55.981 -999 0.063716 0.364948 -0.93092
2008-12-17 09:58:35 51°30.976 2°56.261 -999 0.063716 0.364927 -0.93092
2008-12-17 09:59:35 51°31.036 2°56.539 -999 0.063716 0.364907 -0.93092
2008-12-17 10:00:35 51°31.111 2°56.807 -999 0.063716 0.3649 -0.93092
2008-12-17 10:01:35 51°31.219 2°57.039 -999 0.063716 0.364893 -0.93092
2008-12-17 10:02:35 51°31.353 2°57.235 -999 0.063716 0.364886 -0.93092
2008-12-17 10:03:35 51°31.488 2°57.43 -999 0.063716 0.364859 -0.93092
2008-12-17 10:04:35 51°31.624 2°57.626 -999 0.063716 0.364845 -0.93092
2008-12-17 10:05:35 51°31.758 2°57.824 -999 0.063716 0.364845 -0.93092
2008-12-17 10:06:35 51°31.893 2°58.02 -999 0.063716 0.364824 -0.93092
2008-12-17 10:07:35 51°32.028 2°58.217 -999 0.063716 0.364811 -0.93092
2008-12-17 10:08:35 51°32.166 2°58.404 -999 0.063716 0.364797 -0.93092
2008-12-17 10:09:35 51°32.301 2°58.598 -999 0.063716 0.364783 -0.93092
2008-12-17 10:10:35 51°32.434 2°58.787 -999 0.063716 0.364776 -0.896096
2008-12-17 10:11:35 51°32.563 2°58.994 -999 0.063716 0.364763 -0.896096
2008-12-17 10:12:35 51°32.722 2°59.102 -999 0.063716 0.364776 -0.896096
2008-12-17 10:13:35 51°32.884 2°58.97 -999 0.063716 0.364763 -0.93092
2008-12-17 10:14:35 51°32.981 2°58.7 -999 0.063716 0.364728 -0.93092
2008-12-17 10:15:35 51°33.068 2°58.416 -999 0.063716 0.364721 -0.93092
2008-12-17 10:16:35 51°33.162 2°58.141 -999 0.063716 0.364728 -0.93092
2008-12-17 10:17:35 51°33.27 2°57.877 -999 0.063716 0.364728 -0.93092
2008-12-17 10:18:35 51°33.373 2°57.604 -999 0.063716 0.364721 -0.896096
2008-12-17 10:19:35 51°33.453 2°57.308 -999 0.063716 0.364714 -0.93092
2008-12-17 10:20:35 51°33.527 2°57.003 -999 0.063716 0.364694 -0.93092
2008-12-17 10:21:35 51°33.6 2°56.694 -999 0.063716 0.364694 -0.93092
2008-12-17 10:22:35 51°33.67 2°56.383 -999 0.063819 0.365295 -0.93092
2008-12-17 10:23:35 51°33.741 2°56.071 -999 0.063819 0.365288 -0.93092
2008-12-17 10:24:35 51°33.781 2°55.738 -999 0.063819 0.365268 -0.93092
2008-12-17 10:25:35 51°33.778 2°55.394 -999 0.063819 0.365268 -0.896096
2008-12-17 10:26:35 51°33.721 2°55.048 -999 0.063819 0.365254 -0.93092
2008-12-17 10:27:35 51°33.665 2°54.702 -999 0.063819 0.365247 -0.93092
2008-12-17 10:28:35 51°33.608 2°54.357 -999 0.063819 0.36524 -0.93092
2008-12-17 10:29:35 51°33.509 2°54.034 -999 0.063819 0.365233 -0.93092
2008-12-17 10:30:35 51°33.389 2°53.723 -999 0.063819 0.365227 -0.93092
2008-12-17 10:31:35 51°33.273 2°53.408 -999 0.063819 0.36522 -0.896096
2008-12-17 10:32:35 51°33.151 2°53.097 -999 0.063819 0.365206 -0.896096
2008-12-17 10:33:35 51°33.027 2°52.785 -999 0.063819 0.365199 -0.896096
2008-12-17 10:34:35 51°32.905 2°52.473 -999 0.063819 0.365192 -0.93092
2008-12-17 10:35:35 51°32.778 2°52.165 -999 0.063819 0.365179 -0.93092
2008-12-17 10:36:35 51°32.655 2°51.856 -999 0.063819 0.365179 -0.93092
2008-12-17 10:37:35 51°32.531 2°51.548 -999 0.063819 0.365158 -0.896096
2008-12-17 10:38:35 51°32.405 2°51.24 -999 0.063819 0.365151 -0.896096
2008-12-17 10:39:35 51°32.283 2°50.931 -999 0.063819 0.365144 -0.896096
2008-12-17 10:40:35 51°32.16 2°50.62 -999 0.063819 0.36513 -0.93092
2008-12-17 10:41:35 51°32.033 2°50.31 -999 0.063819 0.365124 -0.93092
2008-12-17 10:42:35 51°31.906 2°49.999 -999 0.063819 0.36511 -0.93092
2008-12-17 10:43:35 51°31.783 2°49.68 -999 0.063819 0.365089 -0.93092
2008-12-17 10:44:35 51°31.659 2°49.363 -999 0.063819 0.365076 -0.93092
2008-12-17 10:45:35 51°31.532 2°49.046 -999 0.063819 0.365069 -0.896096
2008-12-17 10:46:35 51°31.407 2°48.728 -999 0.063819 0.365055 -0.93092
2008-12-17 10:47:35 51°31.281 2°48.411 -999 0.063819 0.365048 -0.93092
2008-12-17 10:48:35 51°31.153 2°48.096 -999 0.063819 0.365021 -0.896096
2008-12-17 10:49:35 51°31.025 2°47.783 -999 0.063819 0.365007 -0.93092
2008-12-17 10:50:35 51°30.901 2°47.468 -999 0.063819 0.364986 -0.896096
2008-12-17 10:51:35 51°30.778 2°47.154 -999 0.063819 0.364966 -0.93092
2008-12-17 10:52:35 51°30.79 2°46.851 -999 0.063819 0.364979 -0.93092
2008-12-17 10:53:35 51°30.958 2°46.801 -999 0.063819 0.364945 -0.93092
2008-12-17 10:54:35 51°31.135 2°46.805 -999 0.063819 0.364911 -0.896096
2008-12-17 10:55:35 51°31.311 2°46.816 -999 0.063819 0.364897 -0.93092
2008-12-17 10:56:35 51°31.489 2°46.822 -999 0.063819 0.364863 -0.93092
2008-12-17 10:57:35 51°31.666 2°46.831 -999 0.063819 0.364849 -0.896096
2008-12-17 10:58:35 51°31.842 2°46.839 -999 0.063819 0.364829 -0.93092
2008-12-17 10:59:35 51°32.02 2°46.847 -999 0.063819 0.364815 -0.93092
2008-12-17 11:00:35 51°32.196 2°46.851 -999 0.063819 0.364815 -0.93092
2008-12-17 11:01:35 51°32.373 2°46.853 -999 0.063819 0.364794 -0.93092
2008-12-17 11:02:35 51°32.547 2°46.859 -999 0.063819 0.364794 -0.93092
2008-12-17 11:03:35 51°32.723 2°46.863 -999 0.063922 0.365388 -0.896096
2008-12-17 11:04:35 51°32.898 2°46.87 -999 0.063922 0.365381 -0.93092
2008-12-17 11:05:35 51°33.074 2°46.875 -999 0.063922 0.365361 -0.93092
2008-12-17 11:06:35 51°33.25 2°46.879 -999 0.063922 0.365354 -0.93092
2008-12-17 11:07:35 51°33.426 2°46.883 -999 0.063922 0.365354 -0.896096
2008-12-17 11:08:35 51°33.602 2°46.889 -999 0.063922 0.365347 -0.896096
2008-12-17 11:09:35 51°33.777 2°46.899 -999 0.063922 0.365354 -0.896096
2008-12-17 11:10:35 51°33.952 2°46.91 -999 0.063922 0.365326 -0.93092
2008-12-17 11:11:35 51°34.126 2°46.926 -999 0.063922 0.365326 -0.93092
2008-12-17 11:12:35 51°34.302 2°46.939 -999 0.063922 0.36532 -0.896096
2008-12-17 11:13:35 51°34.477 2°46.955 -999 0.063922 0.36532 -0.93092
2008-12-17 11:14:35 51°34.653 2°46.971 -999 0.063922 0.36532 -0.896096
2008-12-17 11:15:35 51°34.828 2°46.987 -999 0.063922 0.365313 -0.896096
2008-12-17 11:16:35 51°35.002 2°47.005 -999 0.063922 0.365313 -0.93092
2008-12-17 11:17:35 51°35.177 2°47.021 -999 0.063922 0.365299 -0.896096
2008-12-17 11:18:35 51°35.344 2°47.067 -999 0.063922 0.365306 -0.896096
2008-12-17 11:19:35 51°35.493 2°47.193 -999 0.063922 0.365306 -0.93092
2008-12-17 11:20:35 51°35.641 2°47.322 -999 0.063922 0.365285 -0.896096
2008-12-17 11:21:35 51°35.792 2°47.454 -999 0.063922 0.365299 -0.896096
2008-12-17 11:22:35 51°35.942 2°47.589 -999 0.063922 0.365285 -0.896096
2008-12-17 11:23:35 51°36.095 2°47.713 -999 0.063922 0.365278 -0.896096
2008-12-17 11:24:35 51°36.25 2°47.834 -999 0.063922 0.365285 -0.896096
2008-12-17 11:25:35 51°36.405 2°47.953 -999 0.063922 0.365278 -0.896096
2008-12-17 11:26:35 51°36.56 2°48.076 -999 0.063922 0.365272 -0.93092
2008-12-17 11:27:35 51°36.714 2°48.197 -999 0.063922 0.365278 -0.896096
2008-12-17 11:28:35 51°36.87 2°48.32 -999 0.063922 0.365272 -0.93092
2008-12-17 11:29:35 51°37.023 2°48.443 -999 0.063922 0.365272 -0.896096
2008-12-17 11:30:35 51°37.181 2°48.564 -999 0.063922 0.365251 -0.896096
2008-12-17 11:31:35 51°37.336 2°48.687 -999 0.063922 0.365278 -0.93092
2008-12-17 11:32:35 51°37.492 2°48.809 -999 0.063922 0.365258 -0.93092
2008-12-17 11:33:35 51°37.649 2°48.933 -999 0.063922 0.365258 -0.93092
2008-12-17 11:34:35 51°37.804 2°49.058 -999 0.063922 0.365258 -0.93092
2008-12-17 11:35:35 51°37.961 2°49.177 -999 0.063922 0.365258 -0.896096
2008-12-17 11:36:35 51°38.117 2°49.298 -999 0.063922 0.365265 -0.896096
2008-12-17 11:37:35 51°38.271 2°49.422 -999 0.063922 0.365258 -0.93092
2008-12-17 11:38:35 51°38.428 2°49.542 -999 0.063922 0.365258 -0.93092
2008-12-17 11:39:35 51°38.585 2°49.666 -999 0.063922 0.365251 -0.93092
2008-12-17 11:40:35 51°38.743 2°49.793 -999 0.063922 0.365251 -0.93092
2008-12-17 11:41:35 51°38.901 2°49.916 -999 0.063922 0.365265 -0.93092
2008-12-17 11:42:35 51°39.059 2°50.041 -999 0.063922 0.365258 -0.93092
2008-12-17 11:43:35 51°39.215 2°50.163 -999 0.063922 0.365251 -0.896096
2008-12-17 11:44:35 51°39.373 2°50.284 -999 0.063922 0.365265 -0.93092
2008-12-17 11:45:35 51°39.532 2°50.405 -999 0.063922 0.365265 -0.93092
2008-12-17 11:46:35 51°39.691 2°50.53 -999 0.063922 0.365265 -0.896096
2008-12-17 11:47:35 51°39.822 2°50.708 -999 0.063922 0.365265 -0.896096
2008-12-17 11:48:35 51°39.805 2°50.999 -999 0.063922 0.365265 -0.93092
2008-12-17 11:49:35 51°39.678 2°51.263 -999 0.063922 0.365272 -0.896096
2008-12-17 11:50:35 51°39.55 2°51.525 -999 0.063922 0.365272 -0.93092
2008-12-17 11:51:35 51°39.427 2°51.794 -999 0.063922 0.365278 -0.896096
2008-12-17 11:52:35 51°39.305 2°52.064 -999 0.063922 0.365265 -0.896096
2008-12-17 11:53:35 51°39.154 2°52.302 -999 0.063922 0.365278 -0.896096
2008-12-17 11:54:35 51°38.99 2°52.526 -999 0.063922 0.365272 -0.896096
2008-12-17 11:55:35 51°38.833 2°52.754 -999 0.063922 0.365265 -0.896096
2008-12-17 11:56:35 51°38.678 2°52.983 -999 0.063922 0.365272 -0.896096
2008-12-17 11:57:35 51°38.521 2°53.217 -999 0.063922 0.365265 -0.93092
2008-12-17 11:58:35 51°38.362 2°53.445 -999 0.063922 0.365265 -0.896096
2008-12-17 11:59:35 51°38.209 2°53.676 -999 0.063922 0.365258 -0.896096
2008-12-17 12:00:35 51°38.057 2°53.906 -999 0.063922 0.365265 -0.896096
2008-12-17 12:01:35 51°37.9 2°54.138 -999 0.063922 0.365244 -0.896096
2008-12-17 12:02:35 51°37.742 2°54.368 -999 0.063922 0.365251 -0.896096
2008-12-17 12:03:35 51°37.588 2°54.6 -999 0.063922 0.365244 -0.896096
2008-12-17 12:04:35 51°37.433 2°54.833 -999 0.063922 0.365224 -0.896096
2008-12-17 12:05:35 51°37.234 2°54.818 -999 0.063922 0.365237 -0.896096
2008-12-17 12:06:35 51°37.11 2°54.526 -999 0.063922 0.365224 -0.896096
2008-12-17 12:07:35 51°36.982 2°54.231 -999 0.063922 0.365189 -0.896096
2008-12-17 12:08:35 51°36.855 2°53.928 -999 0.063922 0.365189 -0.93092
2008-12-17 12:09:35 51°36.73 2°53.623 -999 0.063922 0.365196 -0.896096
2008-12-17 12:10:35 51°36.603 2°53.32 -999 0.063922 0.365182 -0.896096
2008-12-17 12:11:35 51°36.48 2°53.015 -999 0.063922 0.365148 -0.896096
2008-12-17 12:12:35 51°36.357 2°52.71 -999 0.063922 0.365148 -0.896096
2008-12-17 12:13:35 51°36.234 2°52.405 -999 0.063922 0.365134 -0.896096
2008-12-17 12:14:35 51°36.112 2°52.101 -999 0.063922 0.365114 -0.896096
2008-12-17 12:15:35 51°35.993 2°51.795 -999 0.063922 0.3651 -0.896096
2008-12-17 12:16:35 51°35.871 2°51.491 -999 0.063922 0.365086 -0.896096
2008-12-17 12:17:35 51°35.75 2°51.189 -999 0.063922 0.365066 -0.896096
2008-12-17 12:18:35 51°35.629 2°50.887 -999 0.063922 0.365052 -0.93092
2008-12-17 12:19:35 51°35.509 2°50.584 -999 0.063922 0.365032 -0.896096
2008-12-17 12:20:35 51°35.339 2°50.436 -999 0.063922 0.36508 -0.896096
2008-12-17 12:21:35 51°35.177 2°50.629 -999 0.063922 0.365025 -0.896096
2008-12-17 12:22:35 51°35.019 2°50.854 -999 0.063922 0.364997 -0.896096
2008-12-17 12:23:35 51°34.861 2°51.078 -999 0.063922 0.364997 -0.896096
2008-12-17 12:24:35 51°34.712 2°51.313 -999 0.063922 0.364997 -0.861272
2008-12-17 12:25:35 51°34.587 2°51.571 -999 0.063922 0.36497 -0.896096
2008-12-17 12:26:35 51°34.457 2°51.82 -999 0.063922 0.364956 -0.861272
2008-12-17 12:27:35 51°34.327 2°52.064 -999 0.063922 0.364943 -0.861272
2008-12-17 12:28:35 51°34.201 2°52.309 -999 0.063922 0.364915 -0.896096
2008-12-17 12:29:35 51°34.071 2°52.552 -999 0.063922 0.364922 -0.896096
2008-12-17 12:30:35 51°33.942 2°52.801 -999 0.063922 0.364895 -0.861272
2008-12-17 12:31:35 51°33.876 2°53.071 -999 0.063922 0.364895 -0.861272
2008-12-17 12:32:35 51°33.962 2°53.309 -999 0.063922 0.364861 -0.861272
2008-12-17 12:33:35 51°34.056 2°53.548 -999 0.064025 0.36546 -0.861272
2008-12-17 12:34:35 51°34.139 2°53.799 -999 0.064025 0.36546 -0.861272
2008-12-17 12:35:35 51°34.228 2°54.046 -999 0.064025 0.365426 -0.861272
2008-12-17 12:36:35 51°34.316 2°54.291 -999 0.064025 0.365412 -0.861272
2008-12-17 12:37:35 51°34.407 2°54.533 -999 0.064025 0.365399 -0.861272
2008-12-17 12:38:35 51°34.508 2°54.765 -999 0.064025 0.365378 -0.861272
2008-12-17 12:39:35 51°34.611 2°54.995 -999 0.064025 0.365371 -0.861272
2008-12-17 12:40:35 51°34.713 2°55.227 -999 0.064025 0.365351 -0.861272
2008-12-17 12:41:35 51°34.815 2°55.463 -999 0.064025 0.365344 -0.861272
2008-12-17 12:42:35 51°34.915 2°55.699 -999 0.064025 0.365337 -0.861272
2008-12-17 12:43:35 51°35.015 2°55.938 -999 0.064025 0.365317 -0.896096
2008-12-17 12:44:35 51°35.113 2°56.182 -999 0.064025 0.36531 -1.209513
2008-12-17 12:45:35 51°35.213 2°56.429 -999 0.064025 0.365303 -1.209513
2008-12-17 12:46:35 51°35.314 2°56.674 -999 0.064025 0.365289 -1.209513
2008-12-17 12:47:35 51°35.413 2°56.921 -999 0.064025 0.365276 -1.209513
2008-12-17 12:48:35 51°35.511 2°57.17 -999 0.064025 0.365262 -1.209513
2008-12-17 12:49:35 51°35.534 2°57.454 -999 0.064025 0.365262 -1.209513
2008-12-17 12:50:35 51°35.415 2°57.716 -999 0.064025 0.365241 -1.244337
2008-12-17 12:51:35 51°35.237 2°57.901 -999 0.064025 0.365228 -1.209513
2008-12-17 12:52:35 51°35.037 2°58.04 -999 0.064025 0.365228 -1.209513
2008-12-17 12:53:35 51°34.836 2°58.173 -999 0.064025 0.3652 -1.209513
2008-12-17 12:54:35 51°34.637 2°58.307 -999 0.064025 0.36518 -1.209513
2008-12-17 12:55:35 51°34.433 2°58.441 -999 0.064025 0.365187 -1.209513
2008-12-17 12:56:35 51°34.231 2°58.578 -999 0.064025 0.365173 -1.209513
2008-12-17 12:57:35 51°34.027 2°58.715 -999 0.064025 0.365159 -1.209513
2008-12-17 12:58:35 51°33.824 2°58.862 -999 0.064025 0.365152 -1.209513
2008-12-17 12:59:35 51°33.62 2°59.009 -999 0.064025 0.365139 -1.244337
2008-12-17 13:00:35 51°33.419 2°59.158 -999 0.064025 0.365125 -1.209513
2008-12-17 13:01:35 51°33.214 2°59.304 -999 0.064025 0.365111 -1.209513
2008-12-17 13:02:35 51°33.011 2°59.458 -999 0.064025 0.365098 -1.209513
2008-12-17 13:03:35 51°32.815 2°59.614 -999 0.064025 0.365105 -1.209513
2008-12-17 13:04:35 51°32.62 2°59.765 -999 0.064025 0.365077 -1.209513
2008-12-17 13:05:35 51°32.425 2°59.913 -999 0.064025 0.365064 -1.209513
2008-12-17 13:06:35 51°32.229 3°0.064 -999 0.064025 0.365043 -1.209513
2008-12-17 13:07:35 51°32.012 3°0.098 -999 0.064025 0.365036 -1.209513
2008-12-17 13:08:35 51°31.803 2°59.973 -999 0.064025 0.365009 -1.209513
2008-12-17 13:09:35 51°31.599 2°59.824 -999 0.064025 0.365002 -1.244337
2008-12-17 13:10:35 51°31.39 2°59.689 -999 0.064025 0.364975 -1.209513
2008-12-17 13:11:35 51°31.182 2°59.558 -999 0.064025 0.364961 -0.965744
2008-12-17 13:12:35 51°30.973 2°59.424 -999 0.064128 0.365553 -0.93092
2008-12-17 13:13:35 51°30.766 2°59.289 -999 0.064128 0.36554 -0.93092
2008-12-17 13:14:35 51°30.563 2°59.161 -999 0.064128 0.365526 -0.93092
2008-12-17 13:15:35 51°30.361 2°59.028 -999 0.064128 0.365505 -0.93092
2008-12-17 13:16:35 51°30.158 2°58.893 -999 0.064128 0.365499 -0.93092
2008-12-17 13:17:35 51°29.952 2°58.766 -999 0.064128 0.365464 -0.93092
2008-12-17 13:18:35 51°29.744 2°58.645 -999 0.064128 0.365471 -1.035392
2008-12-17 13:19:35 51°29.535 2°58.528 -999 0.064128 0.365464 -1.000568
2008-12-17 13:20:35 51°29.329 2°58.41 -999 0.064128 0.365457 -1.035392
2008-12-17 13:21:35 51°29.127 2°58.288 -999 0.064128 0.365444 -1.000568
2008-12-17 13:22:35 51°28.918 2°58.177 -999 0.064128 0.365423 -1.035392
2008-12-17 13:23:35 51°28.71 2°58.064 -999 0.064128 0.365382 -1.000568
2008-12-17 13:24:35 51°28.503 2°57.951 -999 0.064128 0.365396 -1.035392
2008-12-17 13:25:35 51°28.296 2°57.833 -999 0.064128 0.365382 -1.000568
2008-12-17 13:26:35 51°28.089 2°57.702 -999 0.064128 0.365355 -1.035392
2008-12-17 13:27:35 51°27.882 2°57.575 -999 0.064128 0.365341 -1.035392
2008-12-17 13:28:35 51°27.677 2°57.455 -999 0.064128 0.365341 -1.035392
2008-12-17 13:29:35 51°27.471 2°57.332 -999 0.064128 0.365321 -1.035392
2008-12-17 13:30:35 51°27.263 2°57.205 -999 0.064128 0.3653 -1.035392
2008-12-17 13:31:35 51°27.053 2°57.083 -999 0.064128 0.365287 -1.035392
2008-12-17 13:32:35 51°26.842 2°56.963 -999 0.064128 0.365266 -1.035392
2008-12-17 13:33:35 51°26.631 2°56.846 -999 0.064128 0.365253 -1.035392
2008-12-17 13:34:35 51°26.42 2°56.729 -999 0.064128 0.365246 -1.035392
2008-12-17 13:35:35 51°26.208 2°56.624 -999 0.064128 0.365232 -1.035392
2008-12-17 13:36:35 51°25.995 2°56.531 -999 0.064128 0.365218 -1.035392
2008-12-17 13:37:35 51°25.782 2°56.445 -999 0.064128 0.365205 -1.035392
2008-12-17 13:38:35 51°25.569 2°56.362 -999 0.064128 0.365191 -1.035392
2008-12-17 13:39:35 51°25.358 2°56.274 -999 0.064128 0.365177 -1.035392
2008-12-17 13:40:35 51°25.15 2°56.183 -999 0.064128 0.365164 -1.035392
2008-12-17 13:41:35 51°24.942 2°56.097 -999 0.064128 0.365157 -1.035392
2008-12-17 13:42:35 51°24.738 2°56 -999 0.064128 0.365143 -1.035392
2008-12-17 13:43:35 51°24.534 2°55.908 -999 0.064128 0.365143 -1.035392
2008-12-17 13:44:35 51°24.33 2°55.811 -999 0.064128 0.365116 -1.035392
2008-12-17 13:45:35 51°24.126 2°55.712 -999 0.064128 0.365116 -1.035392
2008-12-17 13:46:35 51°23.922 2°55.617 -999 0.064128 0.365089 -1.035392
2008-12-17 13:47:35 51°23.716 2°55.522 -999 0.064128 0.365075 -1.035392
2008-12-17 13:48:35 51°23.51 2°55.43 -999 0.064128 0.365075 -1.000568
2008-12-17 13:49:35 51°23.305 2°55.334 -999 0.064128 0.365075 -0.965744
2008-12-17 13:50:35 51°23.101 2°55.245 -999 0.064128 0.365041 -1.000568
2008-12-17 13:51:35 51°22.899 2°55.158 -999 0.064128 0.365048 -1.000568
2008-12-17 13:52:35 51°22.697 2°55.073 -999 0.064128 0.365027 -1.000568
2008-12-17 13:53:35 51°22.498 2°54.988 -999 0.064128 0.365027 -0.896096
2008-12-17 13:54:35 51°22.302 2°54.903 -999 0.064231 0.365619 -0.896096
2008-12-17 13:55:35 51°22.108 2°54.821 -999 0.064128 0.365021 -0.896096
2008-12-17 13:56:35 51°21.915 2°54.743 -999 0.064231 0.365612 -0.861272
2008-12-17 13:57:35 51°21.723 2°54.663 -999 0.064231 0.365605 -0.861272
2008-12-17 13:58:35 51°21.534 2°54.571 -999 0.064231 0.365591 -0.861272
2008-12-17 13:59:35 51°21.343 2°54.48 -999 0.064231 0.365598 -0.896096
2008-12-17 14:00:35 51°21.152 2°54.391 -999 0.064231 0.365585 -0.965744
2008-12-17 14:01:35 51°20.962 2°54.302 -999 0.064231 0.365564 -0.965744
2008-12-17 14:02:35 51°20.771 2°54.216 -999 0.064231 0.36555 -0.965744
2008-12-17 14:03:35 51°20.58 2°54.128 -999 0.064231 0.365544 -0.965744
2008-12-17 14:04:35 51°20.391 2°54.042 -999 0.064231 0.365523 -0.965744
2008-12-17 14:05:35 51°20.203 2°53.955 -999 0.064231 0.365544 -0.965744
2008-12-17 14:06:35 51°20.015 2°53.873 -999 0.064231 0.365537 -1.000568
2008-12-17 14:07:35 51°19.826 2°53.79 -999 0.064231 0.365523 -0.965744
2008-12-17 14:08:35 51°19.636 2°53.706 -999 0.064231 0.365503 -0.965744
2008-12-17 14:09:35 51°19.452 2°53.6 -999 0.064231 0.365496 -0.965744
2008-12-17 14:10:35 51°19.28 2°53.46 -999 0.064231 0.365489 -0.965744
2008-12-17 14:11:35 51°19.107 2°53.322 -999 0.064231 0.365482 -0.791624
2008-12-17 14:12:35 51°18.936 2°53.183 -999 0.064231 0.365475 -0.7568
2008-12-17 14:13:35 51°18.765 2°53.048 -999 0.064231 0.365455 -0.7568
2008-12-17 14:14:35 51°18.594 2°52.917 -999 0.064231 0.365455 -0.7568
2008-12-17 14:15:35 51°18.423 2°52.789 -999 0.064231 0.365469 -0.826448
2008-12-17 14:16:35 51°18.247 2°52.678 -999 0.064231 0.365448 -0.826448
2008-12-17 14:17:35 51°18.069 2°52.573 -999 0.064231 0.365434 -1.000568
2008-12-17 14:18:35 51°17.881 2°52.496 -999 0.064231 0.365434 -1.000568
2008-12-17 14:19:35 51°17.69 2°52.43 -999 0.064231 0.365421 -1.000568
2008-12-17 14:20:35 51°17.499 2°52.371 -999 0.064231 0.365428 -0.965744
2008-12-17 14:21:35 51°17.306 2°52.316 -999 0.064231 0.365475 -1.000568
2008-12-17 14:22:35 51°17.11 2°52.385 -999 0.064231 0.365421 -0.965744
2008-12-17 14:23:35 51°16.915 2°52.472 -999 0.064231 0.365421 -1.000568
2008-12-17 14:24:35 51°16.722 2°52.565 -999 0.064231 0.365394 -0.965744
2008-12-17 14:25:35 51°16.525 2°52.655 -999 0.064231 0.365407 -0.861272
2008-12-17 14:26:35 51°16.33 2°52.748 -999 0.064231 0.3654 -0.861272
2008-12-17 14:27:35 51°16.145 2°52.863 -999 0.064231 0.365387 -0.617504
2008-12-17 14:28:35 51°15.961 2°52.98 -999 0.064231 0.36538 -0.617504
2008-12-17 14:29:35 51°15.776 2°53.1 -999 0.064231 0.365387 -0.617504
2008-12-17 14:30:35 51°15.593 2°53.222 -999 0.064231 0.365373 -0.58268
2008-12-17 14:31:35 51°15.411 2°53.347 -999 0.064231 0.36538 -0.58268
2008-12-17 14:32:35 51°15.229 2°53.467 -999 0.064231 0.365359 -0.617504
2008-12-17 14:33:35 51°15.05 2°53.591 -999 0.064231 0.365373 -0.58268
2008-12-17 14:34:35 51°14.943 2°53.78 -999 0.064231 0.365353 -0.58268
2008-12-17 14:35:35 51°14.835 2°54.056 -999 0.064231 0.365325 -0.58268
2008-12-17 14:36:35 51°14.723 2°54.344 -999 0.064231 0.365346 -0.58268
2008-12-17 14:37:35 51°14.612 2°54.632 -999 0.064231 0.365325 -0.58268
2008-12-17 14:38:35 51°14.475 2°54.889 -999 0.064231 0.365325 -0.58268
2008-12-17 14:39:35 51°14.338 2°55.138 -999 0.064231 0.365312 -0.58268
2008-12-17 14:40:35 51°14.219 2°55.304 -999 0.064231 0.365319 -0.58268
2008-12-17 14:41:39 51°14.141 2°55.397 -999 0.064231 0.365305 -0.58268
2008-12-17 14:42:39 51°14.08 2°55.45 -999 0.064231 0.365298 -0.547855